Estación meteorológica de Parc Astronòmic del Montsec (La Noguera, Parc Astronòmic del Montsec)

Consulta los datos en tiempo real de la estación meteorológica de Parc Astronòmic del Montsec





Hora UTC 14:20
Temperatura 27.1 ºC
Humedad 46.0 %
Presión 1017.4 hPa
Pluja 0.0 mm
Velocidad viento km/h
Dirección viento

Datos diarios 2026-08-31



Hora UTC (invierno +1h; verano +2h)
Temperatura (ºC) Humedad (%) Presión (hPa) Velocidad viento (km/h) Precipitación (mm)
Hora UTC Aire Humedad Presión Vel. Dir. Vel. Max Dir. Intent. máx 5 min.
00:15 22.7 52.0 1015.5 1.6 0.0
00:30 22.2 54.0 1015.6 1.6 N 1.6 N 0.0
00:50 22.2 53.0 1015.5 1.6 N 0.0
01:05 21.9 54.0 1015.6 3.2 N 3.2 N 0.0
01:15 21.7 54.0 1015.8 3.2 N 0.0
01:30 21.8 54.0 1015.8 NNE 3.2 N 0.0
01:45 21.2 55.0 1015.6 3.2 N 0.0
02:00 20.9 53.0 1015.7 NNE 3.2 N 0.0
02:15 21.7 49.0 1015.6 4.8 4.8 NNE 0.0
02:35 22.4 44.0 1015.5 NNE 4.8 NNE 0.0
02:45 21.6 48.0 1015.6 1.6 4.8 NNE 0.0
03:00 21.4 50.0 1015.6 3.2 N 4.8 NNE 0.0
03:15 21.5 49.0 1015.6 1.6 4.8 NNE 0.0
03:30 21.7 45.0 1015.5 1.6 N 4.8 NNE 0.0
03:45 21.3 47.0 1015.6 4.8 NNE 0.0
04:05 20.1 51.0 1015.6 1.6 N 4.8 NNE 0.0
04:15 19.8 52.0 1015.6 3.2 4.8 NNE 0.0
04:30 19.6 54.0 1015.6 1.6 N 4.8 NNE 0.0
04:45 19.4 55.0 1015.6 4.8 NNE 0.0
05:00 20.4 53.0 1015.6 3.2 N 4.8 NNE 0.0
05:15 20.2 54.0 1015.8 4.8 NNE 0.0
05:35 20.8 52.0 1015.7 3.2 N 4.8 NNE 0.0
05:45 20.3 53.0 1015.9 4.8 NNE 0.0
06:00 20.1 54.0 1015.9 1.6 N 4.8 NNE 0.0
06:15 20.3 55.0 1015.9 3.2 4.8 NNE 0.0
06:30 20.2 56.0 1015.9 3.2 N 4.8 NNE 0.0
06:45 19.7 57.0 1015.8 3.2 4.8 NNE 0.0
07:05 19.7 57.0 1016.0 NNE 4.8 NNE 0.0
07:15 19.4 58.0 1016.0 1.6 4.8 NNE 0.0
07:30 18.7 60.0 1016.1 NNE 4.8 NNE 0.0
07:45 18.4 62.0 1016.4 4.8 NNE 0.0
08:00 18.4 63.0 1016.5 NNE 4.8 NNE 0.0
08:15 18.8 62.0 1016.7 4.8 NNE 0.0
08:35 20.0 61.0 1016.9 NNE 4.8 NNE 0.0
08:45 20.8 58.0 1016.9 1.6 4.8 NNE 0.0
09:00 20.6 60.0 1017.1 1.6 N 4.8 NNE 0.0
09:15 20.5 60.0 1017.3 4.8 NNE 0.0
09:30 21.2 57.0 1017.4 NNE 4.8 NNE 0.0
09:45 21.6 56.0 1017.4 1.6 4.8 NNE 0.0
10:00 21.8 57.0 1017.4 3.2 N 4.8 NNE 0.0
10:15 21.8 56.0 1017.6 3.2 4.8 NNE 0.0
10:30 22.4 55.0 1017.7 NNE 4.8 NNE 0.0
10:45 22.6 55.0 1017.7 3.2 4.8 NNE 0.0
11:00 23.3 53.0 1017.8 NNE 4.8 NNE 0.0
11:20 24.2 48.0 1017.8 1.6 4.8 NNE 0.0
11:30 24.4 47.0 1017.8 3.2 N 4.8 NNE 0.0
11:45 24.7 46.0 1018.1 1.6 4.8 NNE 0.0
12:00 24.8 45.0 1018.1 6.4 N 6.4 N 0.0
12:15 25.4 44.0 1018.1 6.4 N 0.0
12:30 25.4 45.0 1018.1 12.9 NNE 12.9 NNE 0.0
12:50 25.3 49.0 1018.0 6.4 12.9 NNE 0.0
13:00 25.7 49.0 1017.9 9.7 N 12.9 NNE 0.0
13:15 25.9 48.0 1017.8 8.0 12.9 NNE 0.0
13:30 26.4 48.0 1017.7 1.6 N 12.9 NNE 0.0
13:45 26.5 48.0 1017.7 6.4 12.9 NNE 0.0
14:00 26.3 48.0 1017.6 1.6 N 12.9 NNE 0.0
14:20 27.1 46.0 1017.4 12.9 NNE 0.0
Máxima 27.1 63.0 1018.1 12.9 NNE 12.9 NNE 0.0
Mínima 18.4 44.0 1015.5
Total 0.0